Location: Unspecified
(35.7250°N, 0.0000°E)
Time: 04:47:29
(UTC+00:00)

Vanguard 1 - Pass Details

Date: 25 June 2019
Orbit: 653 x 3830 km, 34.3° (Epoch: 22 July)

Event Time Altitude Azimuth Distance (km) Brightness Sun altitude
Rises 01:57:26 0° 243° (WSW) 7,939 - -24.9°
Reaches altitude 10° 02:03:08 10° 241° (WSW) 6,778 - -24.4°
Exits shadow 02:09:07 23° 239° (WSW) 5,501 13.3 -23.7°
Maximum altitude 02:24:12 71° 163° (SSE) 2,793 12.1 -22.0°
Drops below altitude 10° 02:36:10 10° 82° (E) 4,135 13.8 -20.6°
Sets 02:38:45 0° 80° (E) 4,813 14.3 -20.3°
